Tracking 18840 objects as of 18-November-2017
HD Live streaming from Space Station
objects crossing your sky now

INTERBALL AURORA

Track INTERBALL AURORA now!
10-day predictions
INTERBALL AURORA is classified as:


NORAD ID: 24293
Int'l Code: 1996-050C
Perigee: 1,419.1 km
Apogee: 18,568.0 km
Inclination: 63.5 °
Period: 347.2 minutes
Semi major axis: 16364 km
RCS: 12.5524 m2 (large)
Launch date: August 29, 1996
Source: Commonwealth of Independent States (former USSR) (CIS)
Launch site: PLESETSK MISSILE AND SPACE COMPLEX (PKMTR)
aabbcc
Your satellite tracking list
Your tracking list is empty




NASA's NSSDC Master Catalog

Two Line Element Set (TLE):
1 24293U 96050C   17321.39837982 +.00000056 +00000-0 +00000-0 0  9994
2 24293 063.5291 160.2550 5239663 237.2710 061.4021 04.14712872321357
Source of the keplerian elements: AFSPC